Fort Rucker / Ozark, AL

12:47 AM CST on November 18, 2019 (GMT -0600)
Fort Rucker / Ozark

Weather History for KLOR - August, 2019

Change the Weather History Date:

Monday, August 19, 2019

  Actual Average (WUND) Record (WUND)
Temperature  
Mean Temperature 82 °F -  
Max Temperature 91 °F - - (-1)
Min Temperature 73 °F - - (-1)
Cooling Degree Days 17    
Growing Degree Days 32 (Base 50)    
Moisture  
Dew Point 74 °F    
Average Humidity 91    
Maximum Humidity 100    
Minimum Humidity 59    
Precipitation  
Precipitation 0.35 in - - ()
Sea Level Pressure  
Sea Level Pressure 29.98 in    
Wind  
Wind Speed 3 mph (SSW)    
Max Wind Speed 9 mph    
Max Gust Speed -    
Visibility 8 miles    
Events Rain , Thunderstorm    
Averages and records for this station are not official NWS values.
T = Trace of Precipitation, MM = Missing Value Source: NWS Daily Summary

Daily Weather History Graph

Daily Weather History Graph

Search for Another Location

Airport or City:

Astronomy

Aug. 19, 2019 Rise Set
Actual Time 6:10 AM CDT 7:21 PM CDT
Civil Twilight 5:45 AM CDT 7:47 PM CDT
Nautical Twilight 5:15 AM CDT 8:17 PM CDT
Astronomical Twilight 4:44 AM CDT 8:48 PM CDT
Moon 9:57 PM CDT (8/19) 9:39 AM CDT (8/19)
Length of Visible Light 14h 01m
Length of Day
13h 11m
Waning Gibbous, 85% of the Moon is Illuminated
Aug 19
Waning Gibbous
Aug 23
Last Quarter
Aug 30
New
Sep 5
First Quarter
Sep 13
Full

Hourly Weather History & Observations

Time (CDT) Temp. Heat Index Dew Point Humidity Pressure Visibility Wind Dir Wind Speed Gust Speed Precip Events Conditions
12:58 AM 74.3 °F - 73.9 °F 99% 29.95 in 10.0 mi Calm Calm - N/A   Clear
1:58 AM 73.8 °F - 73.4 °F 99% 29.94 in 10.0 mi West 3.5 mph - N/A   Clear
2:58 AM 75.2 °F - 73.9 °F 96% 29.94 in 10.0 mi Calm Calm - N/A   Scattered Clouds
3:58 AM 74.8 °F - 73.8 °F 96% 29.94 in 10.0 mi Calm Calm - N/A   Mostly Cloudy
4:44 AM 73.4 °F - 73.4 °F 100% 29.97 in 9.0 mi Calm Calm - N/A   Mostly Cloudy
4:58 AM 73.2 °F - 72.9 °F 99% 29.97 in 10.0 mi Calm Calm - N/A   Mostly Cloudy
5:58 AM 73.0 °F - 72.7 °F 99% 29.98 in 9.0 mi Calm Calm - N/A   Mostly Cloudy
6:17 AM 73.4 °F - 73.4 °F 100% 29.98 in 8.0 mi Calm Calm - N/A   Overcast
6:30 AM 73.4 °F - 73.4 °F 100% 29.98 in 8.0 mi Calm Calm - N/A Rain , Thunderstorm Light Rain
6:58 AM 74.1 °F - 73.8 °F 99% 29.99 in 7.0 mi West 3.5 mph - 0.00 in   Clear
7:58 AM 78.6 °F - 74.1 °F 86% 30.00 in 10.0 mi NW 3.5 mph - N/A   Partly Cloudy
8:58 AM 81.5 °F 87.4 °F 74.5 °F 79% 30.01 in 10.0 mi Calm Calm - N/A   Clear
9:58 AM 85.1 °F 92.9 °F 74.1 °F 70% 30.01 in 10.0 mi NNE 3.5 mph - N/A   Clear
10:58 AM 86.7 °F 95.5 °F 74.5 °F 67% 30.01 in 10.0 mi Calm Calm - N/A   Scattered Clouds
11:58 AM 89.6 °F 100.4 °F 75.4 °F 63% 29.99 in 10.0 mi South 3.5 mph - N/A   Partly Cloudy
12:58 PM 89.8 °F 100.9 °F 75.6 °F 63% 29.98 in 10.0 mi Calm Calm - N/A Thunderstorm Mostly Cloudy
1:24 PM 91.4 °F 102.5 °F 75.2 °F 59% 29.96 in 10.0 mi South 9.2 mph - N/A   Mostly Cloudy
1:32 PM 89.6 °F 102.2 °F 77.0 °F 66% 29.96 in 7.0 mi ESE 3.5 mph - N/A Rain Rain
1:50 PM 80.6 °F 86.2 °F 75.2 °F 84% 29.98 in 1.8 mi NNW 4.6 mph - N/A Rain , Thunderstorm Light Rain
1:54 PM 78.8 °F - 71.6 °F 78% 29.97 in 0.9 mi WNW 6.9 mph - N/A Rain , Thunderstorm Heavy Rain
1:59 PM 78.1 °F - 72.3 °F 82% 29.97 in 0.8 mi WSW 8.1 mph - 0.26 in Rain , Thunderstorm Rain
2:03 PM 77.0 °F - 75.2 °F 94% 29.98 in 1.2 mi SW 8.1 mph - N/A Rain , Thunderstorm Rain
2:08 PM 77.0 °F - 75.2 °F 94% 29.98 in 2.0 mi West 8.1 mph - N/A Rain , Thunderstorm Light Thunderstorms and Rain
2:11 PM 77.0 °F - 73.4 °F 89% 29.96 in 2.8 mi WSW 8.1 mph - N/A Rain , Thunderstorm Light Thunderstorms and Rain
2:12 PM 77.0 °F - 73.4 °F 89% 29.96 in 3.0 mi WSW 6.9 mph - N/A Rain , Thunderstorm Light Thunderstorms and Rain
2:19 PM 77.0 °F - 73.4 °F 89% 29.97 in 5.0 mi SSW 5.8 mph - N/A Rain , Thunderstorm Light Rain
2:21 PM 77.0 °F - 73.4 °F 89% 29.98 in 5.0 mi SW 5.8 mph - N/A Rain , Thunderstorm Light Thunderstorms and Rain
2:36 PM 77.0 °F - 75.2 °F 94% 29.97 in 6.0 mi SSW 5.8 mph - N/A Rain , Thunderstorm Light Rain
2:58 PM 76.5 °F - 75.6 °F 97% 29.96 in 7.0 mi South 9.2 mph - 0.06 in Rain , Thunderstorm Light Rain
3:07 PM 77.0 °F - 75.2 °F 94% 29.95 in 8.0 mi South 8.1 mph - N/A Thunderstorm Partly Cloudy
3:28 PM 78.8 °F - 75.2 °F 89% 29.97 in 9.0 mi SE 3.5 mph - N/A Thunderstorm Scattered Clouds
3:34 PM 78.8 °F - 75.2 °F 89% 29.98 in 9.0 mi East 5.8 mph - N/A Rain Light Rain
3:44 PM 77.0 °F - 73.4 °F 89% 29.97 in 8.0 mi SSE 8.1 mph - N/A   Mostly Cloudy
3:58 PM 77.9 °F - 73.0 °F 85% 29.97 in 9.0 mi SSW 8.1 mph - 0.00 in   Overcast
4:22 PM 77.0 °F - 73.4 °F 89% 29.96 in 9.0 mi South 4.6 mph - N/A Rain Light Rain
4:41 PM 77.0 °F - 73.4 °F 89% 29.96 in 9.0 mi South 9.2 mph - N/A   Overcast
4:58 PM 75.9 °F - 73.2 °F 91% 29.97 in 10.0 mi South 3.5 mph - 0.00 in   Overcast
5:06 PM 75.2 °F - 73.4 °F 94% 29.96 in 9.0 mi SW 4.6 mph - N/A Rain Light Rain
5:58 PM 75.4 °F - 72.5 °F 91% 29.94 in 7.0 mi South 8.1 mph - 0.00 in   Clear
6:09 PM 75.2 °F - 73.4 °F 94% 29.96 in 7.0 mi Calm Calm - N/A   Clear
6:14 PM 75.2 °F - 73.4 °F 94% 29.97 in 7.0 mi NNE 4.6 mph - N/A Rain Light Rain
6:34 PM 75.2 °F - 73.4 °F 94% 29.98 in 6.0 mi Calm Calm - N/A Rain Light Rain
6:56 PM 75.2 °F - 73.4 °F 94% 29.99 in 7.0 mi Calm Calm - N/A   Clear
6:58 PM 74.5 °F - 73.9 °F 98% 29.99 in 7.0 mi Calm Calm - 0.02 in   Clear
7:01 PM 75.2 °F - 73.4 °F 94% 29.99 in 6.0 mi Calm Calm - N/A Rain Light Rain
7:02 PM 75.2 °F - 73.4 °F 94% 29.99 in 7.0 mi Calm Calm - N/A   Clear
7:11 PM 75.2 °F - 75.2 °F 100% 29.99 in 7.0 mi SW 3.5 mph - N/A Rain Light Rain
7:20 PM 75.2 °F - 75.2 °F 100% 29.99 in 8.0 mi Calm Calm - N/A   Clear
7:21 PM 75.2 °F - 75.2 °F 100% 29.99 in 9.0 mi Calm Calm - N/A Rain Light Rain
7:22 PM 75.2 °F - 75.2 °F 100% 29.99 in 9.0 mi Calm Calm - N/A   Partly Cloudy
7:58 PM 73.9 °F - 73.6 °F 99% 29.99 in 10.0 mi Calm Calm - 0.01 in   Mostly Cloudy
8:11 PM 73.4 °F - 73.4 °F 100% 30.01 in 10.0 mi NNE 6.9 mph - N/A   Overcast
8:41 PM 75.2 °F - 75.2 °F 100% 30.02 in 10.0 mi NE 4.6 mph - N/A   Overcast
8:58 PM 74.7 °F - 74.7 °F 100% 30.01 in 10.0 mi NNE 3.5 mph - N/A   Overcast
9:23 PM 75.2 °F - 75.2 °F 100% 30.01 in 10.0 mi Calm Calm - N/A   Overcast
9:58 PM 74.3 °F - 74.3 °F 100% 30.00 in 10.0 mi Calm Calm - N/A   Overcast
10:46 PM 73.4 °F - 73.4 °F 100% 30.01 in 10.0 mi Calm Calm - N/A   Mostly Cloudy
10:56 PM 73.4 °F - 73.4 °F 100% 30.01 in 10.0 mi Calm Calm - N/A   Mostly Cloudy
10:58 PM 73.4 °F - 73.4 °F 100% 30.01 in 10.0 mi Calm Calm - N/A   Mostly Cloudy
11:53 PM 73.4 °F - 73.4 °F 100% 30.03 in 10.0 mi Calm Calm - N/A   Mostly Cloudy
11:58 PM 73.4 °F - 73.4 °F 100% 30.03 in 10.0 mi Calm Calm - N/A   Mostly Cloudy